This is the latest recevied weather packets stored in our database for station/object EA1GEC-10. If no packets are shown the sender has not sent any weather packets the latest 10 day(s).
| Time | Temp. | Humidity | Pressure | Rain* | Wind** | Luminosity | Snow |
|---|---|---|---|---|---|---|---|
| 1778155274 | 14.44° C | 59% | 1017.4 hPa | - | - | - | - |
| 1778154374 | 15.56° C | 56% | 1017.3 hPa | - | - | - | - |
| 1778153474 | 17.22° C | 57% | 1017.2 hPa | - | - | - | - |
| 1778152574 | 16.11° C | 59% | 1017.4 hPa | - | - | - | - |
| 1778151674 | 15° C | 60% | 1017.5 hPa | - | - | - | - |
| 1778150783 | 15° C | 61% | 1017.7 hPa | - | - | - | - |
| 1778149874 | 14.44° C | 62% | 1017.9 hPa | - | - | - | - |
| 1778148974 | 13.89° C | 63% | 1017.9 hPa | - | - | - | - |
| 1778148074 | 13.89° C | 64% | 1018 hPa | - | - | - | - |
| 1778147174 | 13.33° C | 64% | 1018 hPa | - | - | - | - |
| 1778146273 | 13.33° C | 65% | 1018 hPa | - | - | - | - |
| 1778145374 | 13.33° C | 65% | 1018.1 hPa | - | - | - | - |
| 1778144473 | 13.33° C | 65% | 1018.1 hPa | - | - | - | - |
| 1778143573 | 13.33° C | 67% | 1018.2 hPa | - | - | - | - |
| 1778142673 | 13.33° C | 68% | 1018.2 hPa | - | - | - | - |
| 1778140873 | 12.22° C | 70% | 1018.2 hPa | - | - | - | - |
| 1778139973 | 12.22° C | 72% | 1018.2 hPa | - | - | - | - |
| 1778139073 | 11.11° C | 73% | 1018.2 hPa | - | - | - | - |
| 1778138173 | 11.11° C | 74% | 1018.3 hPa | - | - | - | - |
| 1778137273 | 11.11° C | 75% | 1018.4 hPa | - | - | - | - |
| 1778136373 | 11.11° C | 75% | 1018.4 hPa | - | - | - | - |
| 1778135473 | 11.67° C | 76% | 1018.2 hPa | - | - | - | - |
| 1778134572 | 11.11° C | 77% | 1018.4 hPa | - | - | - | - |
| 1778133672 | 11.11° C | 80% | 1018.2 hPa | - | - | - | - |
| 1778132782 | 10.56° C | 81% | 1018.1 hPa | - | - | - | - |
* Rain since midnight (hover to see other rain measurements)
** Current wind speed in m/s (hover to see current wind gust speed)